RH
10 4 2 3 4 6 7 8 13 17 22 46 69 63 57 55 55 85 92 100 100 72 36 45 31 22 22 70 97 100 100 100 98 98 90 87 90 74 80 69 100 100 93 87 79 61 53 42 39 39 47 52 53 46
3 2 3 5 6 7 8 10 16 25 37 63 77 65 56 58 70 85 56 70 78 48 24 21 28 21 26 88 100 100 100 100 100 100 100 100 100 94 78 74 94 100 100 92 93 62 52 42 37 33 35 60 58 51
2 4 6 7 8 10 14 31 52 74 100 100 95 62 41 39 44 42 28 30 30 23 16 28 23 13 26 91 100 100 100 100 100 99 100 100 100 98 100 75 80 67 93 94 96 96 49 40 36 30 30 30 31 35
4 6 8 8 11 20 38 70 98 98 100 100 100 84 67 68 56 32 22 23 24 18 14 24 13 14 43 98 100 100 100 100 100 100 100 96 69 92 97 100 80 71 82 98 100 100 97 66 52 42 32 27 27 29
6 7 9 10 20 42 92 92 98 100 99 98 94 91 95 98 94 78 45 26 20 19 14 18 21 31 71 100 100 100 100 100 100 100 100 100 89 99 80 71 100 100 94 93 98 100 100 98 83 65 47 39 35 34
6 8 10 12 37 100 99 82 47 33 47 39 47 60 81 100 100 65 41 53 21 15 13 22 58 53 95 100 100 100 100 100 100 100 96 100 100 100 97 92 100 100 100 100 99 100 100 100 100 100 100 99 99 96
8 10 14 16 42 91 74 71 81 88 100 100 95 68 70 69 76 49 31 25 28 15 15 47 100 100 100 100 100 100 100 100 100 100 100 98 75 97 100 100 100 92 100 100 98 100 100 100 100 100 100 100 100 100
10 14 17 18 18 34 50 48 41 54 67 47 37 38 38 44 42 26 18 17 17 19 20 68 100 100 100 100 100 100 100 100 100 100 100 100 100 100 100 100 100 100 100 100 100 100 100 100 100 100 100 100 100 100
12 16 23 23 18 21 28 34 32 39 47 44 47 39 38 36 24 20 20 18 31 47 35 99 100 100 100 100 100 100 100 100 100 100 100 100 100 100 100 100 100 100 100 100 100 100 100 100 100 100 100 100 100 98
16 18 26 29 24 18 26 33 27 37 78 77 100 93 100 100 72 49 75 96 93 69 100 100 100 100 99 100 100 100 100 100 100 100 100 100 100 100 100 100 100 100 100 100 100 100 100 100 100 100 100 100 100 100
20 21 28 34 28 20 22 25 50 95 100 99 100 100 100 100 100 100 100 100 98 100 100 100 100 100 99 100 100 100 100 100 100 100 100 100 100 100 100 100 100 100 100 100 100 100 100 100 100 100 100 100 100 100
22 24 29 37 30 20 21 27 93 97 98 100 100 100 100 100 100 100 100 100 100 100 100 100 100 100 100 100 100 100 100 100 100 100 100 100 100 100 100 100 100 100 100 100 100 100 100 100 100 100 100 100 100 100
24 26 30 37 34 22 22 37 79 77 97 96 100 100 100 100 100 100 100 100 100 100 100 100 100 100 100 100 100 100 100 100 100 100 100 100 100 100 100 100 100 100 100 100 100 100 100 100 100 100 100 100 100 100
23 26 30 37 37 25 22 38 78 87 82 85 100 100 100 100 100 100 100 100 100 100 100 100 100 100 100 100 100 100 100 100 100 100 100 100 100 100 100 100 100 100 100 100 100 100 100 100 100 100 100 100 100 100
24 25 28 38 41 27 23 43 77 80 87 96 98 100 100 100 100 100 100 100 100 100 100 100 100 100 100 100 100 100 100 100 100 100 100 100 100 100 100 100 100 100 100 100 100 100 100 100 100 100 100 100 100 99
27 24 25 35 38 28 28 40 87 96 100 98 91 100 100 100 100 100 100 100 100 100 100 100 100 100 100 100 100 100 100 100 100 100 100 100 100 100 100 100 100 100 100 100 100 100 100 100 99 97 92 77 61 50
30 24 22 29 39 29 31 47 84 100 100 82 94 100 100 100 100 100 100 100 100 100 100 100 100 100 100 100 99 98 100 100 100 100 100 100 100 100 100 100 100 100 100 100 99 97 91 72 55 43 34 29 25 20
32 26 24 27 38 33 35 57 84 99 100 93 90 75 95 100 100 100 100 99 100 100 100 100 100 100 98 98 100 100 100 100 100 100 100 100 100 100 100 98 97 95 86 65 41 31 24 18 16 15 14 13 12 11
33 30 26 25 36 35 36 58 86 94 87 100 96 73 73 99 100 100 100 100 92 98 100 100 100 100 100 96 100 100 100 100 100 100 100 99 98 92 80 59 40 31 27 22 18 16 14 14 13 13 12 11 11 10
38 36 30 22 29 34 36 43 75 89 84 79 100 96 71 89 100 100 99 99 99 88 82 90 94 100 100 100 100 100 98 89 79 80 88 82 66 42 33 30 26 23 20 18 18 18 17 16 15 14 13 11 11 14
44 43 36 24 27 32 39 42 43 53 76 70 73 100 100 97 88 96 100 100 100 99 97 90 92 85 74 55 39 36 48 76 90 69 48 35 32 31 29 27 26 24 23 23 23 24 22 18 16 15 24 41 39 33
51 51 44 33 26 33 43 48 49 44 48 68 65 87 100 100 100 100 100 100 100 100 100 100 99 95 97 100 100 95 78 55 35 28 26 27 30 28 30 33 33 33 30 30 26 23 18 18 41 57 56 49 32 22
57 60 55 48 30 29 36 44 40 36 34 37 65 99 100 100 100 100 100 100 100 100 100 100 100 100 98 90 74 52 38 30 25 24 22 22 31 42 50 51 49 42 34 26 22 17 38 70 73 76 80 58 51 57
59 71 63 62 52 36 40 48 45 44 37 35 29 45 100 100 100 100 100 100 100 100 100 100 100 98 85 73 60 53 46 39 33 30 30 32 35 33 29 28 30 30 26 19 21 68 79 80 87 91 96 100 100 100
65 80 76 75 68 62 42 48 56 49 44 37 36 43 76 100 100 100 100 100 100 100 100 100 99 89 76 68 55 45 45 41 39 46 46 41 36 32 27 27 24 21 20 47 82 84 87 99 100 100 100 100 100 91
80 86 91 89 81 84 66 45 66 73 74 69 93 97 97 100 100 100 100 100 100 100 100 96 93 84 76 66 62 62 56 46 40 32 30 30 29 29 32 42 57 70 72 86 91 99 100 100 100 100 100 100 75 30
98 94 99 96 91 89 83 60 54 87 83 95 100 96 96 100 100 100 100 100 100 100 99 98 94 90 87 77 66 56 51 43 38 34 31 36 70 92 87 92 91 88 89 94 100 100 100 100 100 100 100 72 26 18
100 98 100 100 100 93 90 77 48 76 91 92 98 95 76 66 70 83 96 99 98 98 98 97 90 82 75 66 58 50 42 44 48 69 89 90 100 100 100 98 97 97 100 100 100 100 100 100 100 100 86 28 16 15
100 100 100 100 100 97 90 79 50 59 88 91 94 89 86 86 96 96 92 94 94 89 82 73 65 59 56 58 63 67 79 90 97 100 100 100 100 100 100 100 100 100 100 100 100 100 100 100 100 100 50 17 14 14
100 100 100 100 100 100 88 75 48 56 82 98 100 98 89 85 87 97 99 96 95 100 100 99 99 91 83 88 97 100 100 100 100 100 100 100 100 100 100 100 100 100 100 100 100 100 100 100 100 95 37 15 13 16
100 100 100 100 100 100 78 67 45 64 88 92 80 88 94 89 76 76 94 94 97 100 99 98 100 100 100 100 100 100 100 100 100 100 100 100 100 100 100 100 100 100 100 100 100 100 100 100 100 94 46 16 13 16
100 100 100 100 100 100 63 64 45 68 83 82 93 98 100 100 93 76 73 81 89 92 100 100 100 100 100 100 100 100 100 100 100 99 96 98 100 100 100 100 100 100 100 100 100 100 100 100 100 98 64 21 13 15
87 100 100 100 100 85 46 55 42 61 75 71 91 99 100 96 88 82 81 93 100 100 100 100 100 100 100 100 100 100 88 69 59 59 63 70 74 79 92 100 100 100 100 100 100 100 98 99 100 100 88 47 18 13
Wind_Speed
82 85 86 80 68 60 56 52 46 40 35 32 31 30 27 27 27 24 21 23 29 33 28 27 24 22 20 25 26 18 19 28 33 29 35 36 42 49 51 58 56 56 53 54 52 53 54 49 45 48 48 48 41 39
85 84 77 66 60 55 50 46 40 34 31 30 29 29 27 27 26 25 23 25 28 33 27 21 20 26 19 31 18 12 18 18 28 32 28 37 37 50 47 52 64 58 47 48 53 50 52 46 43 38 37 41 40 37
81 74 66 59 56 53 47 39 32 29 26 26 29 30 28 27 28 29 25 24 28 28 19 17 22 22 25 30 17 13 16 21 34 42 31 41 42 33 36 44 45 52 46 42 45 52 42 39 36 36 36 33 34 38
74 67 60 56 54 51 39 34 28 25 26 27 29 28 26 25 25 25 23 23 25 25 16 19 21 16 27 25 14 12 16 19 32 42 42 41 39 35 34 34 32 39 41 37 40 48 48 36 37 37 38 38 38 37
66 60 54 52 49 42 32 30 28 29 31 31 32 30 26 24 23 21 22 21 23 22 14 13 16 15 26 21 15 13 15 19 25 38 20 35 37 36 37 35 34 32 31 32 30 30 37 43 40 36 36 37 37 37
61 54 52 48 40 33 33 34 37 36 34 34 32 30 27 23 20 23 18 19 20 21 15 12 14 20 23 20 16 13 18 18 19 35 38 28 34 38 34 32 31 32 28 28 29 29 31 31 31 32 34 35 36 34
58 54 51 46 37 33 35 34 32 26 26 27 25 25 25 25 24 24 20 16 20 17 12 9 19 23 18 19 17 14 15 17 19 24 31 43 39 34 41 37 35 31 29 31 32 32 30 32 33 31 30 32 33 34
55 52 50 46 40 33 31 30 30 29 29 30 30 30 26 22 22 19 17 14 16 16 8 12 22 20 18 19 20 18 16 17 19 20 19 26 33 34 35 34 28 36 36 35 33 31 34 31 30 32 30 29 31 34
54 52 47 45 41 37 35 35 34 32 33 36 34 27 22 17 12 11 11 13 15 12 8 15 21 23 17 17 18 19 16 16 18 17 17 19 23 28 28 24 25 28 29 24 27 29 30 29 30 33 31 29 32 36
52 51 47 43 43 39 35 36 36 34 32 22 17 10 7 11 8 10 11 13 10 8 9 14 20 19 14 17 19 18 17 14 17 19 20 19 21 24 24 24 28 30 30 29 28 29 30 30 28 31 34 37 39 40
51 50 47 44 43 40 34 31 30 22 18 19 9 12 11 10 9 10 9 9 8 8 9 15 17 12 14 19 20 20 21 18 18 18 16 17 16 17 19 21 22 23 26 26 28 29 28 28 29 29 29 29 28 29
49 50 47 44 40 39 30 26 20 17 21 8 10 8 7 5 6 7 5 7 8 11 11 14 17 10 15 21 20 22 20 22 21 18 17 18 18 17 18 19 19 20 20 19 20 22 25 25 25 26 27 28 29 29
49 50 47 43 38 37 28 23 17 18 14 6 10 9 6 5 3 5 6 7 9 12 14 15 14 10 17 20 20 19 19 20 20 19 17 17 19 21 21 20 19 18 20 22 23 25 25 25 25 26 26 27 27 28
48 49 46 40 34 34 26 19 12 16 9 6 11 12 5 3 3 5 5 6 11 12 12 14 12 12 12 18 20 20 18 17 19 18 17 18 19 20 21 21 22 22 22 23 23 23 23 23 24 25 25 26 27 27
48 48 44 37 29 28 23 16 8 13 15 13 10 8 3 4 2 3 7 11 15 11 11 11 11 12 10 12 17 18 18 18 17 15 15 16 17 20 21 22 22 22 21 21 21 22 23 23 24 24 25 25 25 26
46 47 41 33 26 24 21 15 3 11 14 10 7 7 4 5 5 7 11 14 14 11 10 11 12 12 10 9 11 14 16 16 15 13 14 17 22 23 22 21 21 20 20 21 22 22 20 19 18 19 22 24 27 30
44 47 41 31 24 22 18 14 1 6 9 10 4 6 5 5 6 8 11 14 12 12 11 11 12 12 12 12 12 11 11 11 14 17 19 21 21 20 20 20 19 16 12 9 8 10 13 17 20 23 27 30 34 37
42 44 41 30 21 19 14 14 5 2 6 8 6 3 6 6 7 9 12 15 14 12 13 14 14 14 14 14 15 14 16 21 23 21 20 20 18 15 12 9 5 2 4 8 12 17 21 24 27 31 35 38 41 44
39 41 40 30 20 16 12 9 8 5 1 6 8 4 1 6 6 10 13 15 16 14 11 12 15 14 14 18 21 24 26 26 24 21 18 14 10 7 3 1 5 8 12 17 21 25 28 31 32 35 39 42 44 44
37 38 38 31 20 12 10 7 8 6 2 1 6 6 3 5 7 12 14 14 12 15 16 16 17 18 19 19 20 20 19 17 16 13 10 7 4 2 5 8 11 15 19 22 24 24 25 29 34 37 38 38 38 39
36 36 34 29 19 10 9 8 7 7 5 3 1 7 6 8 9 13 12 15 18 21 19 19 20 21 22 23 22 19 17 13 10 7 5 3 5 7 10 13 16 17 18 18 19 22 28 32 33 32 32 33 37 40
35 33 33 30 21 9 6 7 7 8 7 5 3 3 7 10 10 13 16 14 16 16 17 20 23 22 20 18 15 14 11 7 3 3 6 8 9 12 13 14 15 17 17 19 23 26 28 27 27 27 32 33 29 26
33 32 30 28 23 14 2 1 1 4 8 7 3 8 10 10 12 16 14 12 12 14 16 19 19 17 15 12 10 6 2 3 7 11 13 12 12 13 16 17 18 20 22 25 25 25 21 21 22 25 23 16 9 4
30 30 28 27 23 18 10 5 4 4 4 6 6 3 10 13 12 14 14 14 13 14 14 15 14 12 9 6 4 3 5 9 14 15 15 15 15 15 18 20 22 24 24 23 20 16 15 17 17 14 9 3 0 3
26 27 26 25 22 18 14 8 6 8 9 10 9 7 13 15 15 16 15 14 13 12 12 11 9 7 6 5 5 7 9 12 12 12 14 17 20 20 20 21 21 20 18 13 9 11 11 11 8 3 2 2 1 1
23 24 25 23 21 16 14 10 6 5 6 3 4 12 14 15 14 15 17 16 16 14 13 11 10 9 9 9 9 9 10 11 12 14 16 17 18 19 16 14 12 11 11 8 7 7 7 6 4 2 3 1 3 8
20 21 22 22 20 18 12 9 3 3 5 6 5 8 11 12 14 13 11 11 12 12 12 11 11 10 9 9 10 11 11 14 17 18 16 13 11 12 11 7 4 4 4 4 5 5 3 2 3 3 0 4 9 13
18 19 20 21 17 17 11 7 1 2 2 5 6 6 9 10 9 11 12 13 13 13 12 11 10 10 11 11 13 15 16 12 10 9 8 6 3 4 3 4 4 3 3 5 4 2 2 2 2 1 4 9 13 14
15 16 18 19 15 15 11 5 2 6 4 4 3 5 7 9 9 8 7 7 7 7 8 9 10 10 10 9 7 7 5 4 5 6 6 6 6 7 5 3 2 2 4 3 2 2 2 2 1 3 7 12 14 15
13 15 15 16 14 14 11 4 4 9 6 3 3 6 9 11 11 10 8 8 8 6 5 6 6 5 5 4 3 2 2 2 2 2 2 3 4 3 2 2 2 3 4 2 1 2 2 1 1 3 8 12 14 15
12 13 14 13 11 12 10 3 9 12 8 6 6 6 8 9 10 9 7 7 6 4 4 4 4 4 4 3 4 4 6 6 7 7 6 5 4 3 3 3 3 3 2 1 2 2 2 1 1 4 9 13 15 15
14 13 11 10 10 11 8 2 13 15 11 8 6 7 7 8 8 9 9 7 5 4 6 6 7 6 6 7 7 7 6 6 5 6 6 6 5 3 3 3 4 3 2 2 3 3 2 1 2 4 8 12 15 16
11 9 8 8 8 9 6 5 16 18 14 9 8 8 7 6 7 7 6 5 6 7 7 6 5 6 6 6 5 2 1 2 4 5 6 7 9 9 7 6 5 5 4 4 4 5 4 3 3 4 7 11 15 17
Wind_Direction
324 326 325 322 321 321 317 311 305 302 300 299 299 298 296 292 289 289 284 274 275 281 289 287 287 283 270 217 196 200 211 212 217 219 210 219 228 221 223 219 212 209 214 213 217 225 229 230 232 234 236 238 233 230
331 329 326 324 323 320 318 314 307 302 298 298 296 296 293 289 287 286 285 278 275 280 283 288 297 271 238 210 197 210 169 172 187 183 188 204 210 215 226 225 217 220 224 227 224 227 232 232 235 238 237 238 235 232
332 329 326 325 323 324 324 318 311 307 304 298 297 297 294 288 283 284 285 283 278 281 279 300 272 273 228 215 208 179 162 162 184 190 191 204 203 223 227 227 222 218 217 222 223 224 231 236 240 241 242 238 238 238
332 329 328 328 327 328 326 318 317 311 302 297 300 306 297 293 288 288 285 279 279 277 281 263 282 253 209 212 209 172 151 160 173 188 201 213 220 219 218 218 211 210 215 221 228 224 223 229 232 233 236 237 239 241
332 331 333 332 328 329 332 330 320 310 305 300 300 300 300 295 296 287 278 274 272 273 261 267 267 219 199 201 198 171 153 160 172 188 178 181 222 216 213 211 204 199 205 218 224 220 225 226 227 231 235 238 241 243
334 335 338 337 333 328 324 321 319 315 310 307 302 297 292 287 288 280 273 268 263 262 265 256 222 191 199 207 197 169 161 162 160 186 194 207 211 212 213 208 211 208 204 206 217 230 232 222 224 226 233 236 237 237
337 341 344 343 335 326 325 325 327 328 326 321 318 315 297 284 275 272 266 246 250 254 266 207 187 189 203 203 198 184 178 170 170 172 199 214 223 214 213 215 218 220 218 223 230 238 243 244 243 241 239 241 237 226
340 343 346 347 344 339 336 331 326 322 318 317 313 305 299 293 276 267 254 236 234 236 238 184 185 191 197 201 199 196 193 184 182 175 171 197 212 226 224 220 218 226 229 235 241 243 239 237 237 235 228 228 235 248
342 345 347 346 342 335 332 334 332 325 318 314 313 308 298 289 274 247 224 211 211 217 214 175 185 191 191 190 191 196 196 186 179 177 180 176 172 188 200 199 208 220 215 220 211 216 220 226 227 224 232 236 244 252
341 345 346 344 342 338 332 329 330 330 326 336 341 345 72 81 93 131 151 179 200 200 181 169 182 190 194 185 184 188 190 186 175 178 183 187 192 182 182 185 185 190 197 204 210 220 224 223 225 227 227 229 234 241
340 344 344 344 343 341 335 333 341 351 357 344 47 83 88 94 126 143 157 173 181 185 172 166 171 171 200 183 181 182 189 189 182 176 177 179 180 188 197 201 197 204 212 211 209 213 215 218 223 226 228 230 233 235
341 344 344 344 343 346 344 345 356 356 360 57 53 60 72 82 135 143 148 169 173 175 151 152 165 160 170 175 177 181 186 192 189 184 186 184 183 182 186 190 197 206 216 219 214 216 215 216 222 226 229 232 234 236
342 343 344 344 343 348 346 350 358 354 5 23 32 35 46 94 139 163 153 162 172 152 141 143 163 161 160 166 167 170 177 191 191 190 191 190 187 185 186 193 200 208 212 211 214 220 224 224 225 227 230 234 239 243
345 344 344 344 344 347 347 350 357 2 13 20 24 17 56 76 132 148 137 141 144 131 144 155 156 159 149 164 166 170 172 175 181 184 189 191 196 197 198 205 204 206 214 218 221 222 224 229 232 235 239 241 244 247
347 346 345 344 343 347 349 351 347 7 41 28 16 18 46 87 108 104 129 130 139 134 146 161 158 159 155 159 173 175 179 182 185 193 198 204 205 207 206 206 208 208 213 220 224 226 227 229 232 236 241 247 253 260
346 349 347 344 346 351 353 349 4 25 17 360 20 31 80 89 88 116 134 136 142 139 143 152 153 159 162 165 173 184 190 190 188 182 190 197 194 195 199 204 209 211 212 217 223 226 231 237 246 254 260 266 269 271
348 352 352 350 350 356 359 6 257 36 16 15 22 22 70 87 99 117 133 138 140 144 144 147 144 143 147 147 156 169 173 172 175 180 185 188 185 186 191 196 199 203 204 214 238 258 267 271 274 276 279 281 283 283
351 354 354 353 352 356 360 11 7 45 32 33 24 350 26 77 105 120 132 134 129 134 138 136 137 141 147 141 139 143 149 151 152 156 165 176 174 169 161 157 167 228 291 302 304 301 300 298 295 293 291 290 289 289
352 356 356 355 354 357 2 15 23 17 309 50 35 37 104 64 104 122 129 128 129 126 125 126 137 124 142 142 139 144 148 153 156 153 148 138 130 133 141 280 312 308 308 309 308 305 300 296 293 290 287 288 291 292
352 356 358 357 356 2 12 25 25 30 59 33 48 48 94 83 100 114 112 107 120 138 132 125 125 127 135 138 141 143 143 141 137 139 144 147 157 236 285 300 301 302 302 303 300 300 298 293 292 294 295 295 294 294
353 354 357 359 1 9 24 26 26 31 62 107 277 67 83 94 108 98 105 107 100 115 129 134 138 141 144 145 141 140 137 140 143 150 176 231 281 301 305 302 302 304 303 300 298 291 290 293 297 296 296 296 295 294
352 353 355 2 1 358 26 39 46 55 63 96 134 114 111 112 123 131 130 129 148 159 167 157 152 149 146 145 143 142 136 127 98 357 330 322 314 310 306 301 297 294 293 292 298 295 295 297 295 298 300 298 296 294
349 353 356 359 3 6 295 13 58 51 55 61 134 146 147 140 140 138 125 143 158 160 158 148 139 135 137 142 141 138 110 359 349 351 343 319 300 289 284 286 290 290 289 294 295 295 297 296 300 303 303 301 297 304
344 351 352 355 1 8 5 262 270 282 309 334 351 209 176 164 160 148 136 141 153 162 163 156 155 158 159 173 201 274 319 327 329 324 322 309 297 298 300 296 291 290 290 287 293 295 297 302 305 301 296 291 117 111
338 346 350 354 353 358 0 350 305 278 287 299 300 214 192 182 175 167 162 163 164 168 171 173 180 191 200 230 267 290 300 304 302 300 297 294 289 290 291 290 287 284 284 291 298 296 301 312 316 306 317 337 326 159
329 339 346 347 352 348 355 0 352 350 352 352 165 172 177 184 185 188 186 188 190 197 203 207 214 222 232 247 259 268 279 286 291 290 290 290 289 292 288 280 277 275 283 295 291 298 304 301 289 301 324 310 148 143
321 332 339 342 346 349 347 356 350 19 48 89 121 163 171 173 182 186 188 192 193 199 206 211 215 222 234 250 261 271 277 291 294 291 289 293 298 294 291 290 271 276 262 276 303 303 297 289 288 316 24 142 143 142
313 323 332 339 340 348 343 345 284 186 123 120 128 146 174 183 188 192 197 202 205 204 205 210 221 233 243 255 271 279 286 287 286 288 298 306 301 254 289 303 312 295 276 295 291 273 268 277 310 48 142 148 147 149
303 318 326 334 336 345 343 327 228 185 175 164 169 175 166 164 162 168 173 171 176 191 207 220 232 245 257 262 260 271 270 280 311 318 322 323 319 318 321 314 278 287 306 303 280 235 246 276 14 124 152 153 155 158
304 312 321 327 333 342 343 322 193 176 172 168 189 177 175 169 160 154 152 163 157 157 174 187 202 218 229 237 234 248 279 293 309 327 341 344 326 312 295 276 290 313 316 302 247 230 244 293 63 153 165 165 165 168
299 311 318 322 329 339 343 307 178 170 157 130 127 150 169 175 177 182 176 172 178 190 185 187 170 163 157 156 152 139 119 102 80 61 45 29 7 345 313 288 295 307 310 263 216 230 247 319 169 179 178 177 177 178
302 304 309 312 321 333 340 203 176 172 162 144 123 121 128 151 170 172 169 179 177 173 158 155 152 148 152 145 134 117 95 80 66 49 37 29 28 3 304 280 278 299 297 271 242 243 251 260 231 197 192 189 188 188
277 284 292 299 318 332 338 190 179 179 174 161 145 140 133 138 151 161 170 175 162 154 149 146 154 167 163 158 148 138 102 20 9 1 359 356 359 359 353 337 304 286 279 263 257 255 261 257 240 221 207 202 199 199